Other Public Products
Issued by NWS Grand Forks, ND

Home | Current Version | Previous Version | Text Only | Print | Product List | Glossary Off
Versions: 1 2 3 4 5 6 7 8 9 10 11 12 13 14 15 16 17 18 19 20 21 22 23 24 25 26 27 28 29 30 31 32 33 34 35 36 37 38 39 40 41 42 43 44 45 46 47 48 49 50

000
FPUS83 KFGF 301731
OPUFGF
PRAIRIE TO PINES WEATHER ROUNDUP
NATIONAL WEATHER SERVICE EASTERN NORTH DAKOTA/GRAND FORKS ND
1200 PM CDT TUE AUG 30 2016

 **SATELLITE DATA USED TO AUGMENT SKY COVER AT AUTOMATED STATIONS**
 *****  WEATHER ACROSS EASTERN NORTH DAKOTA  *****

CITY           SKY/WX    TMP DP  RH WIND       PRES   REMARKS
GRAND FORKS    MOSUNNY   74  52  46 W7        30.24F
GRAND FORKS AF SUNNY     73  50  43 VRB5      30.25S
GRAND CITY NWS   N/A     75 N/A N/A NW10        N/A
BUXTON           N/A     77  54  44 NW3         N/A
DEVILS LAKE    SUNNY     71  51  49 SW6       30.29S
FARGO          SUNNY     75  48  38 VRB3      30.24F
WAHPETON ARPT  SUNNY     73  43  33 N8        30.25R
$$

 *****  WEATHER ACROSS CENTRAL AND WESTERN NORTH DAKOTA  *****

CITY           SKY/WX    TMP DP  RH WIND       PRES   REMARKS
JAMESTOWN      SUNNY     73  52  47 VRB5      30.27S
BISMARCK       SUNNY     73  52  47 SE6       30.27F
MINOT          SUNNY     76  47  35 SE9       30.25F
MINOT AFB      SUNNY     74  47  37 SE10      30.24F
GARRISON         N/A     74  49  41 SE12      30.26F
WILLISTON      SUNNY     79  44  28 SE13      30.21F
DICKINSON      CLOUDY    74  52  46 S14       30.24R
HETTINGER      SUNNY     75  56  51 SE14      30.25F
$$

 *****  OTHER OBSERVATIONS NORTHEAST NORTH DAKOTA  *****

CITY           SKY/WX    TMP DP  RH WIND       PRES   REMARKS
WALHALLA       FAIR      70  66  88 N6        30.26S
LANGDON        FAIR      75  46  35 VRB7      30.27F
CAVALIER       FAIR      70  50  49 NW3       30.25F
GRAFTON        FAIR      72  52  49 NW5       30.26F
CANDO          FAIR      73  50  43 SW3       30.29F
FORT TOTTEN      N/A     73  50  43 SW3       29.95
ROLLA            N/A     72  46  40 CALM      30.29S
RUGBY          FAIR      73  48  40 SE5       30.27S
 ***** THE ABOVE OBSERVATIONS ARE NON NWS ARE NOT QUALITY
        CONTROLLED AND MAY MIS-REPORT RAIN FOR SNOW...
$$

 *****  OTHER OBSERVATIONS SOUTHEAST NORTH DAKOTA *****

CITY           SKY/WX    TMP DP  RH WIND       PRES   REMARKS
COOPERSTOWN    NOT AVBL
VALLEY CITY    FAIR      72  50  46 CALM      30.29S
OAKES            N/A    N/A N/A N/A MISG        N/A
GWINNER        FAIR      73  54  49 NE5       30.26S
SHEYENNE NWR     N/A     75  54  47 NE2       29.95
BUFFALO          N/A     75  42  30 CALM        N/A
WYNDMERE         N/A     73  54  49 N5          N/A
 ***** THE ABOVE OBSERVATIONS ARE NON NWS ARE NOT QUALITY
       CONTROLLED AND MAY MIS-REPORT RAIN FOR SNOW...
$$

  *****  WEATHER ACROSS NORTHERN MINNESOTA  *****

CITY           SKY/WX    TMP DP  RH WIND       PRES   REMARKS
FLAG ISLAND    SUNNY     66  45  45 W5        30.21F
WARROAD        SUNNY     70  54  56 W9        30.24S
ROSEAU         SUNNY     72  54  53 W10       30.24S
HALLOCK        SUNNY     72  48  43 CALM      30.24F
THF RVR FALLS  SUNNY     70  52  52 NW8       30.26F
HALSTAD          N/A     72  52  48 NW5         N/A
FOSSTON        SUNNY     72  52  49 NW7       30.26S
BAUDETTE       SUNNY     69  50  50 NW12      30.23S
WASKISH          N/A     70  50  49 W8        30.23F
CROOKSTON      SUNNY     72  52  49 W8        30.26R
$$
  *****  WEATHER ACROSS CENTRAL AND WEST MINNESOTA  *****

CITY           SKY/WX    TMP DP  RH WIND       PRES   REMARKS
BEMIDJI        SUNNY     70  51  51 NW8       30.24S
PARK RAPIDS    NOT AVBL
WADENA         SUNNY     72  52  49 N7        30.24S
DETROIT LAKES  SUNNY     70  52  52 N7        30.27S
MOORHEAD       SUNNY     73  48  40 NW7       30.25S
FERGUS FALLS   SUNNY     73  54  49 N6        30.25S
ELBOW LAKE     FAIR      73  52  47 NE7       30.25R
MORRIS MN      SUNNY     77  54  44 N6        30.22F
STAPLES        SUNNY     72  48  43 N7        30.23F
WHEATON        SUNNY     77  55  47 CALM      30.25S
$$
  *****  WEATHER ELSEWHERE ACROSS MINNESOTA  *****

CITY           SKY/WX    TMP DP  RH WIND       PRES   REMARKS
DULUTH         SUNNY     71  55  56 NW6       30.19F
INTRNTL FALLS  SUNNY     69  49  48 NW7       30.20F
ELY            SUNNY     66  46  48 NW7       30.19S
CLOQUET        SUNNY     70  50  49 N5        30.20S
BRAINERD       SUNNY     71  50  47 N8        30.23S
HIBBING        SUNNY     67  50  54 NW8       30.21S
ALEXANDRIA     MOSUNNY   74  47  38 N5        30.25F
SAINT CLOUD    PTSUNNY   72  59  63 N7        30.22S
MINNEAPOLIS    CLOUDY    75  61  61 N8        30.20S
$$

  *****  WEATHER ACROSS SOUTH DAKOTA  *****

CITY           SKY/WX    TMP DP  RH WIND       PRES   REMARKS
SIOUX FALLS    PTSUNNY   78  69  73 S8        30.22S
BROOKINGS      MOSUNNY   73  66  78 NE5       30.24S
WATERTOWN      SUNNY     75  60  59 NE8       30.25R
HURON          MOSUNNY   81  65  58 VRB6      30.20S
SISSETON         N/A     75  57  53 N3        30.23F
ABERDEEN       SUNNY     77  59  53 NE9       30.23F
MITCHELL       SUNNY     80  68  66 SE7       30.21S
PIERRE         SUNNY     77  68  73 SE14      30.20S
MOBRIDGE       SUNNY     81  52  36 SE12      30.21S
RAPID CITY     SUNNY     72  64  76 S6        30.25F
$$

  *****  SOME WEATHER IN NEARBY STATES *****

CITY           SKY/WX    TMP DP  RH WIND       PRES   REMARKS
GLASGOW MT     SUNNY     76  51  41 SE17      30.09R
GREAT FALLS MT MOSUNNY   75  45  34 W6        30.13R
CHEYENNE WY    SUNNY     72  51  47 VRB7      30.39F
SCOTTSBLUFF NE SUNNY     76  61  59 CALM      30.30S
OMAHA NE       CLOUDY    75  67  76 N5        30.21F
DES MOINES IA  CLOUDY    78  70  76 VRB3      30.16F
DAVENPORT IA   MOSUNNY   76  71  85 W5        30.15F
CHICAGO IL     CLOUDY    79  71  76 CALM      30.12F
EAU CLAIRE WI  CLOUDY    79  67  66 VRB3      30.15F
LA CROSSE WI   MOSUNNY   82  66  58 NW8       30.15F
$$

  *****  SOME NATIONAL WEATHER *****

CITY           SKY/WX    TMP DP  RH WIND       PRES   REMARKS
LA GUARDIA NY  MOSUNNY   82  62  50 NE8       30.12F
RALEIGH NC     MOSUNNY   88  66  48 E5        30.10F HX  90
ATLANTA GA     MOSUNNY   87  66  49 E10       30.11F
NEW ORLEANS LA MOSUNNY   91  79  67 N12       29.95F HX 107
OKLAHOMA CITY  PTSUNNY   88  69  53 CALM      30.14S HX  92
ALBUQUERQUE NM MOSUNNY   74  49  41 E12G21    30.35S
SALT LAKE CITY MOSUNNY   87  36  16 SE9       30.14S
LOS ANGELES CA MOSUNNY   75  63  66 S3        29.88F HAZE
BOISE ID       PTSUNNY   80  32  17 E7        29.99S HAZE
SEATTLE WA     CLOUDY    61  52  72 S8        30.04F
$$

*** WEATHER ACROSS MANITOBA...SASKATCHEWAN AND ONTARIO ***
                ***ONTARIO***

CITY           SKY/WX    TMP DP  RH WIND       PRES   REMARKS
GERALDTON      PTSUNNY   68  50  52 W10       30.05F
THUNDER BAY    MOSUNNY   72  50  46 W14       30.11F
SIOUX LOOKOUT  MOSUNNY   66  48  52 NW13G20   30.15S
TORONTO        MOSUNNY   82  59  44 W7        30.10F
BIG TROUT LK   CLOUDY    59  54  82 NW13G20   29.97
PICKLE LAKE    PTSUNNY   64  48  55 W14G21    30.06S
DRYDEN         SUNNY     66  45  45 NW8G18    30.17F
KENORA         MOSUNNY   66  43  42 NW12G17   30.22S
$$
                *** MANITOBA***

CITY           SKY/WX    TMP DP  RH WIND       PRES   REMARKS
BRANDON        PTSUNNY   68  46  45 S3        30.28S
DAUPHIN        SUNNY     66  45  45 VRB3      30.26F
ISLAND LAKE    CLOUDY    57  52  82 NW14G23   30.13R
PILOT MOUND      N/A     68  45  42 SW5         N/A
THE PAS        PTSUNNY   59  50  72 NW8       30.26R
THOMPSON       CLOUDY    55  50  82 N7G18     30.21R
WINNIPEG       MOSUNNY   70  46  43 NW7       30.24S
LYNN LAKE      CLOUDY    54  48  82 MISG      30.27R
CHURCHILL      CLOUDY    48  46  93 N22       30.17R
GILLAM         CLOUDY    52  48  87 N17G24    30.14R
$$
                ***SASKATCHEWAN***

CITY           SKY/WX    TMP DP  RH WIND       PRES   REMARKS
ESTEVAN        PTSUNNY   73  48  40 E15       30.23F
KINDERSLEY     MOSUNNY   68  46  45 E22G29    30.18S
LLOYDMINSTER   PTSUNNY   59  46  63 E18       30.22F
PRINCE ALBERT  MOSUNNY   59  45  58 SE5       30.30S
REGINA         PTSUNNY   73  48  40 SE14G20   30.22R
YORKTON        SUNNY     64  45  48 E3        30.28F  C1F1C2F2C3F3C4F4C5F5C6F6C7F7C8F8C9F9CaFaCbFbCcFcCdFdCe!


USA.gov is the U.S. government's official web portal to all federal, state and local government web resources and services.